Location: Niedergestelen
(46.3129°N, 7.7822°E)
Time: 13:55:22
(UTC+00:00)

MOS 1-B - Pass Details

Date: 01 December 2020
Orbit: 905 x 914 km, 99.4° (Epoch: 27 January)

Event Time Altitude Azimuth Distance (km) Brightness Sun altitude
Rises 16:06:09 0° 155° (SSE) 3,529 7.5 -4.1°
Reaches altitude 10° 16:08:33 10° 152° (SSE) 2,593 6.8 -4.5°
Maximum altitude 16:14:17 69° 71° (ENE) 975 4.4 -5.4°
Drops below altitude 10° 16:20:05 10° 349° (N) 2,614 6.6 -6.3°
Sets 16:22:31 0° 347° (NNW) 3,561 7.3 -6.7°
